User: anonymous   Login
Location: Young's Pond
(41.2695°N, 72.7766°W)
Time: 10:45:37
(UTC-04:00)
Language:

Spot 4 - Orbit

View from above orbital plane
View from above orbital plane
View from above satellite
View from above satellite

Ground track
Ground track

The orbit data is extracted from the following two-line orbital elements,

1 25260U 98017A   15244.56335774  .00000202  00000-0  59739-4 0  9997
2 25260  98.4121 316.1316 0014114 121.5183 238.7395 14.53307571906766
Epoch (UTC): 01 September 2015 13:31:14
Eccentricity: 0.0014114
inclination: 98.4121°
perigee height: 705 km
apogee height: 725 km
right ascension of ascending node: 316.1316°
argument of perigee: 121.5183°
revolutions per day: 14.53307571
mean anomaly at epoch: 238.7395°
orbit number at epoch: 90676

The dashed part of the orbit path shows where the satellite is in the earth's shadow,  

DLR